Tracking 35280 objects as of 7-Sep-2026
HD Live streaming from Space Station
objects crossing your sky now

COSMOS 1813 DEB


COSMOS 1813 DEB is no longer on orbit


NORAD ID: 17504
Int'l Code: 1987-004AU
Launch date: January 15, 1987
Source: Commonwealth of Independent States (former USSR) (CIS)
Launch site: PLESETSK MISSILE AND SPACE COMPLEX (PKMTR)
Decay date: 1987-09-02

Note: This is SATELLITE DEBRIS
Your satellite tracking list
Your tracking list is empty




NASA's NSSDC Master Catalog

Two Line Element Set (TLE):
1 17504U 87004 AU 87243.29378826  .02011483 +30285-5 +68933-3 0  9999
2 17504 072.7954 086.9373 0004089 161.0010 199.7051 16.25311189033408
Source of the keplerian elements: AFSPC